TimeCDT,TemperatureF,Dew PointF,Humidity,Sea Level PressureIn,VisibilityMPH,Wind Direction,Wind SpeedMPH,Gust SpeedMPH,PrecipitationIn,Events,Conditions,WindDirDegrees,DateUTC
12:56 AM,53.1,41.0,64,30.14,10.0,North,8.1,-,N/A,,Partly Cloudy,350,2014-03-30 05:56:00
1:56 AM,51.1,41.0,68,30.14,10.0,NNW,5.8,-,N/A,,Clear,330,2014-03-30 06:56:00
2:56 AM,48.9,39.9,71,30.14,10.0,NNW,8.1,-,N/A,,Clear,330,2014-03-30 07:56:00
3:56 AM,46.9,39.9,77,30.13,10.0,NNW,6.9,-,N/A,,Clear,330,2014-03-30 08:56:00
4:56 AM,46.0,39.0,76,30.14,10.0,North,9.2,-,N/A,,Clear,350,2014-03-30 09:56:00
5:56 AM,46.0,39.0,76,30.14,10.0,NNW,8.1,-,N/A,,Clear,340,2014-03-30 10:56:00
6:56 AM,45.0,39.0,80,30.17,10.0,North,6.9,-,N/A,,Clear,350,2014-03-30 11:56:00
7:56 AM,48.0,39.0,71,30.19,10.0,North,11.5,-,N/A,,Clear,10,2014-03-30 12:56:00
8:56 AM,52.0,39.0,61,30.21,10.0,NNE,13.8,-,N/A,,Clear,20,2014-03-30 13:56:00
9:56 AM,57.0,37.9,49,30.22,10.0,North,9.2,-,N/A,,Clear,350,2014-03-30 14:56:00
10:27 AM,59.0,37.4,45,30.22,10.0,North,9.2,-,N/A,,Partly Cloudy,10,2014-03-30 15:27:00
10:56 AM,61.0,37.0,41,30.21,10.0,NNE,9.2,-,N/A,,Clear,20,2014-03-30 15:56:00
11:56 AM,64.9,37.0,36,30.19,10.0,North,10.4,16.1,N/A,,Clear,350,2014-03-30 16:56:00
12:56 PM,69.1,34.0,27,30.16,10.0,NE,12.7,16.1,N/A,,Clear,40,2014-03-30 17:56:00
1:56 PM,72.0,34.0,25,30.14,10.0,NNW,11.5,-,N/A,,Clear,330,2014-03-30 18:56:00
2:56 PM,73.9,34.0,23,30.12,10.0,North,11.5,17.3,N/A,,Clear,350,2014-03-30 19:56:00
3:56 PM,73.9,33.1,22,30.11,10.0,Variable,6.9,-,N/A,,Clear,0,2014-03-30 20:56:00
4:56 PM,73.9,33.1,22,30.10,10.0,North,11.5,-,N/A,,Clear,350,2014-03-30 21:56:00
5:56 PM,72.0,36.0,27,30.11,10.0,NNW,8.1,-,N/A,,Clear,330,2014-03-30 22:56:00
6:56 PM,68.0,39.0,35,30.12,10.0,NW,4.6,-,N/A,,Clear,320,2014-03-30 23:56:00
7:56 PM,63.0,39.0,41,30.13,10.0,Calm,Calm,-,N/A,,Clear,0,2014-03-31 00:56:00
8:56 PM,57.0,42.1,57,30.15,10.0,Calm,Calm,-,N/A,,Clear,0,2014-03-31 01:56:00
9:56 PM,57.9,39.0,49,30.15,10.0,NNW,4.6,-,N/A,,Clear,330,2014-03-31 02:56:00
10:56 PM,55.9,39.0,53,30.15,10.0,Calm,Calm,-,N/A,,Clear,0,2014-03-31 03:56:00
11:56 PM,52.0,39.9,63,30.14,10.0,North,3.5,-,N/A,,Clear,10,2014-03-31 04:56:00